Home   Weather   Big Rapids   Past weeks
Flag for USA

Past Weather in Big Rapids, Michigan, USA — Yesterday and Last 2 Weeks

Now
71 °F

Sunny.


Feels Like: 72 °F
Forecast: 82 / 69 °F
Wind: 5 mph from Southwest

Location: Roben-Hood Airport

Current Time: Jul 16, 2019 at 7:17:35 am

Latest Report: Jul 16, 2019 at 6:39 am


Visibility: 10 mi

Pressure: 29.91 "Hg

Humidity: 78%

Dew Point: 63 °F

Location of Big RapidsLocation

Past Weather in Big Rapids — Graph

°F

Big Rapids Temperature Yesterday

Maximum temperature yesterday: 87 °F (at 5:35 pm)
Minimum temperature yesterday: 59 °F (at 6:17 am)
Average temperature yesterday: 75 °F

High & Low Weather Summary for the Past Weeks

 TemperatureHumidityPressure
High89 °F (Jul 5, 3:16 pm)97% (Jul 1, 7:35 am)30.19 "Hg (Jul 1, 7:35 am)
Low51 °F (Jul 14, 5:56 am)31% (Jul 14, 4:39 pm)29.81 "Hg (Jul 10, 8:56 pm)
Average72 °F72%29.99 "Hg
* Reported Jul 1 6:15 am — Jul 16 6:16 am, Big Rapids. Weather by CustomWeather, © 2019

Note: Actual official high and low records may vary slightly from our data, if they occured in-between our weather recording intervals... More about our weather records

Advertising

Big Rapids Weather History for the Previous 24 Hours

Scroll right to see more
 ConditionsComfort  
Time TempWeatherWind HumidityBarometerVisibility
6:16 am
Tue, Jul 16
71 °FSunny.9 mph76%29.90 "Hg10 mi
5:56 am71 °FClear.8 mph76%29.92 "Hg10 mi
5:36 am72 °FClear.6 mph73%29.92 "Hg10 mi
5:18 am72 °FClear.6 mph74%29.93 "Hg10 mi
5:00 am72 °FClear.3 mph73%29.93 "Hg10 mi
4:35 am72 °FClear.6 mph73%29.93 "Hg10 mi
4:16 am73 °FClear.6 mph70%29.93 "Hg10 mi
3:57 am74 °FClear.6 mph69%29.94 "Hg10 mi
3:39 am75 °FClear.7 mph67%29.94 "Hg10 mi
3:15 am76 °FClear.7 mph65%29.94 "Hg10 mi
2:56 am76 °FClear.7 mph65%29.95 "Hg10 mi
2:36 am76 °FClear.8 mph63%29.96 "Hg10 mi
2:19 am77 °FClear.8 mph62%29.97 "Hg10 mi
1:56 am77 °FClear.9 mph64%29.97 "Hg10 mi
1:35 am77 °FClear.10 mph65%29.98 "Hg10 mi
1:17 am77 °FClear.10 mph65%29.97 "Hg10 mi
12:59 am77 °FClear.10 mph66%29.97 "Hg10 mi
12:36 am77 °FClear.9 mph66%29.97 "Hg10 mi
12:15 am78 °FClear.9 mph66%29.98 "Hg10 mi
11:56 pm
Mon, Jul 15
78 °FClear.9 mph65%29.98 "Hg10 mi
11:38 pm78 °FClear.9 mph65%29.98 "Hg10 mi
11:15 pm78 °FClear.6 mph63%29.97 "Hg10 mi
10:56 pm78 °FClear.7 mph62%29.97 "Hg10 mi
10:36 pm78 °FClear.6 mph63%29.96 "Hg10 mi
10:17 pm77 °FClear.6 mph64%29.95 "Hg10 mi
9:59 pm77 °FClear.3 mph63%29.95 "Hg10 mi
9:36 pm78 °FClear.No wind62%29.95 "Hg10 mi
9:15 pm79 °FSunny.No wind60%29.95 "Hg10 mi
8:56 pm80 °FSunny.3 mph57%29.95 "Hg10 mi
8:20 pm82 °FSunny.7 mph54%29.96 "Hg10 mi
7:55 pm83 °FScattered clouds.6 mph51%29.96 "Hg10 mi
7:36 pm84 °FScattered clouds.8 mph52%29.97 "Hg10 mi
7:18 pm84 °FSunny.9 mph51%29.97 "Hg10 mi
6:56 pm85 °FScattered clouds.9 mph51%29.97 "Hg10 mi
6:35 pm85 °FSunny.10 mph54%29.96 "Hg10 mi
6:18 pm86 °FScattered clouds.17 mph51%29.94 "Hg10 mi
6:00 pm85 °FBroken clouds.10 mph55%29.95 "Hg10 mi
5:35 pm87 °FScattered clouds.10 mph53%29.94 "Hg10 mi
5:16 pm87 °FScattered clouds.17 mph55%29.95 "Hg10 mi
4:57 pm87 °FScattered clouds.17 mph57%29.96 "Hg10 mi
4:35 pm86 °FPartly sunny.13 mph59%29.97 "Hg10 mi
4:16 pm86 °FPartly sunny.13 mph61%29.97 "Hg10 mi
3:58 pm86 °FBroken clouds.15 mph61%29.97 "Hg10 mi
3:35 pm86 °FPartly sunny.14 mph61%29.97 "Hg10 mi
3:16 pm85 °FBroken clouds.13 mph64%29.98 "Hg10 mi
2:56 pm85 °FBroken clouds.7 mph65%29.98 "Hg10 mi
2:38 pm83 °FCloudy.8 mph67%29.99 "Hg10 mi
2:20 pm84 °FCloudy.5 mph64%29.99 "Hg10 mi
2:15 pm84 °FCloudy.7 mph65%30.00 "Hg10 mi
1:56 pm84 °FBroken clouds.6 mph64%30.01 "Hg10 mi
1:35 pm83 °FPartly sunny.6 mph66%30.01 "Hg10 mi
1:18 pm84 °FScattered clouds.3 mph65%30.02 "Hg10 mi
1:00 pm84 °FScattered clouds.3 mph63%30.03 "Hg10 mi
12:36 pm80 °FSunny.5 mph70%30.04 "Hg10 mi
12:15 pm80 °FSunny.3 mph70%30.04 "Hg10 mi
11:58 am81 °FSunny.No wind66%30.04 "Hg10 mi
11:35 am82 °FPartly sunny.5 mph65%30.05 "Hg10 mi
11:16 am80 °FMore clouds than sun.No wind70%30.06 "Hg10 mi
10:56 am80 °FMostly cloudy.7 mph67%30.06 "Hg10 mi
10:36 am77 °FPartly sunny.3 mph72%30.06 "Hg10 mi
10:15 am77 °FScattered clouds.6 mph71%30.06 "Hg10 mi
9:36 am73 °FBroken clouds.5 mph71%30.07 "Hg10 mi
9:18 am72 °FSunny.9 mph71%30.08 "Hg10 mi
8:55 am70 °FSunny.5 mph72%30.08 "Hg10 mi
8:36 am68 °FScattered clouds.6 mph78%30.08 "Hg10 mi
8:15 am66 °FScattered clouds.6 mph83%30.09 "Hg10 mi
7:57 am64 °FSunny.No wind89%30.08 "Hg10 mi
7:39 am63 °FSunny.No wind92%30.07 "Hg10 mi
7:16 am61 °FSunny.No wind93%30.06 "Hg10 mi
Weather by CustomWeather, © 2019

See weather overview

LIVE PARTIAL LUNAR ECLIPSE – Watch the eclipse as it happens